Flag for Cote d'Ivoire (Ivory Coast) Weather past 2 weeks in Abidjan, Cote d'Ivoire (Ivory Coast)

Now
79 °F

Scattered clouds.


Feels Like: 82 °F
Forecast: 80 / 90 °F
Wind: 2 mph from North

Location: Abidjan Airport


UV Index: 7 (High)

Visibility: N/A


Pressure: 29.89 "Hg

Humidity: 89%

Dew point: 75 °F

Location of AbidjanLocation

Historic Weather in Abidjan

°F

Abidjan temperature yesterday

Maximum temperature yesterday: 86 °F (at 1:30 PM)
Minimum temperature yesterday: 77 °F (at 10:00 AM)
Average temperature yesterday: 83 °F

Past Weeks' High & Low Weather Summary

 TemperatureHumidityPressure
High91 °F (Apr 20, 1:30 PM)100% (Apr 9, 4:00 AM)29.98 "Hg (Apr 9, 4:00 AM)
Low72 °F (Apr 11, 9:00 PM)55% (Apr 11, 1:00 PM)29.74 "Hg (Apr 13, 4:00 PM)
Average83 °F82%29.84 "Hg
* Reported Apr 8 7:00 AM — Apr 23 7:30 AM, Abidjan, Weather by CustomWeather, © 2014

Note: Actual official high and low records may vary slightly from our data, if they occured in-between our weather recording intervals... More about our weather records

Advertising

Historic Weather Conditions — Data for Previous 24 hours

 ConditionsComfort  
Time TempWeatherWind HumidityBarometerVisibility
7:30 AM
Apr 23
77 °FBroken clouds.3 mph94%29.86 "HgN/A
7:00 AM75 °FBroken clouds.3 mph100%29.86 "HgN/A
6:30 AM75 °FBroken clouds.5 mph94%29.86 "HgN/A
6:00 AM75 °FPartly cloudy.5 mph94%29.86 "HgN/A
5:30 AM75 °FLight rain. Mostly cloudy.3 mph100%29.83 "HgN/A
5:00 AM75 °FLight rain. Mostly cloudy.2 mph100%29.83 "HgN/A
4:30 AM75 °FLight rain. Mostly cloudy.2 mph94%29.83 "HgN/A
4:00 AM75 °FLight rain. Mostly cloudy.6 mph100%29.83 "HgN/A
3:30 AM75 °FLight rain. Mostly cloudy.9 mph94%29.80 "HgN/A
3:00 AM73 °FThunderstorms. Overcast.9 mph100%29.83 "HgN/A
2:30 AM73 °FThunderstorms. Overcast.5 mph100%29.86 "HgN/A
2:00 AM73 °FThunderstorms. Overcast.3 mph100%29.89 "HgN/A
1:30 AM73 °FThunderstorms. Overcast.3 mph100%29.89 "Hg2 mi
1:00 AM73 °FThunderstorms. Overcast.5 mph100%29.92 "Hg2 mi
12:30 AM73 °FThunderstorms. Overcast.15 mph100%29.89 "Hg1 mi
12:00 AM75 °FStrong thunderstorms. Overcast.17 mph94%29.95 "Hg1 mi
11:30 PM
Apr 22
82 °FThunderstorms. Passing clouds.7 mph89%29.89 "Hg5 mi
11:00 PM82 °FThunderstorms. Partly cloudy.1 mph94%29.92 "Hg5 mi
10:30 PM82 °FThunderstorms. Partly cloudy.5 mph89%29.89 "Hg5 mi
10:00 PM82 °FThunderstorms. Partly cloudy.6 mph94%29.89 "Hg5 mi
9:30 PM82 °FThunderstorms. Partly cloudy.5 mph89%29.89 "HgN/A
9:00 PM82 °FPartly cloudy.8 mph89%29.86 "HgN/A
8:30 PM84 °FPassing clouds.7 mph84%29.86 "HgN/A
8:00 PM82 °FPassing clouds.6 mph89%29.83 "HgN/A
7:30 PM82 °FPassing clouds.6 mph89%29.83 "HgN/A
7:00 PM82 °FPassing clouds.6 mph89%29.83 "HgN/A
6:30 PM82 °FPassing clouds.7 mph89%29.80 "HgN/A
6:00 PM84 °FBroken clouds.9 mph84%29.80 "HgN/A
5:30 PM84 °FBroken clouds.9 mph84%29.80 "HgN/A
5:00 PM84 °FBroken clouds.8 mph84%29.80 "HgN/A
4:30 PM86 °FBroken clouds.10 mph79%29.80 "HgN/A
4:00 PM86 °FBroken clouds.13 mph79%29.80 "HgN/A
3:30 PM86 °FBroken clouds.12 mph79%29.80 "HgN/A
3:00 PM86 °FBroken clouds.13 mph79%29.80 "HgN/A
2:30 PM86 °FBroken clouds.12 mph79%29.83 "HgN/A
2:00 PM84 °FBroken clouds.12 mph84%29.83 "HgN/A
1:30 PM86 °FBroken clouds.9 mph79%29.86 "HgN/A
1:00 PM84 °FBroken clouds.9 mph84%29.83 "HgN/A
12:30 PM84 °FBroken clouds.9 mph84%29.86 "HgN/A
12:00 PM84 °FBroken clouds.9 mph84%29.86 "HgN/A
11:30 AM82 °FBroken clouds.6 mph84%29.89 "HgN/A
11:00 AM79 °FThunderstorms. Broken clouds.3 mph94%29.89 "Hg5 mi
10:30 AM79 °FThunderstorms. Mostly cloudy.7 mph94%29.89 "Hg4 mi
10:00 AM77 °FStrong thunderstorms. Mostly cloudy.12 mph94%29.92 "Hg1 mi
9:30 AM81 °FThunderstorms. Partly sunny.16 mph89%29.89 "Hg4 mi
9:00 AM82 °FThunderstorms. Partly sunny.3 mph94%29.89 "Hg4 mi
8:30 AM82 °FThunderstorms. Mostly cloudy.2 mph94%29.89 "Hg2 mi
8:00 AM84 °FPartly sunny.3 mph84%29.86 "Hg4 mi
Weather by CustomWeather, © 2014

See weather overview